Regional Weather Roundup
Issued by NWS

Home | Current Version | Previous Version | Text Only | Print | Product List | Glossary Off
Versions: 1 2 3 4 5 6 7 8 9 10 11 12 13 14 15 16 17 18 19 20 21 22 23 24 25 26 27 28 29 30 31 32 33 34 35 36 37 38 39 40 41 42 43 44 45 46 47 48 49 50

000
ASUS43 KLMK 300002
RWRKY
KENTUCKY REGIONAL WEATHER ROUNDUP
NATIONAL WEATHER SERVICE LOUISVILLE KY
700 PM EST THU JAN 29 2015

NOTE "FAIR" INDICATES FEW OR NO CLOUDS BELOW 12,000 FEET
WITH NO SIGNIFICANT WEATHER AND/OR OBSTRUCTIONS TO VISIBILITY.

KYZ001>023-026-027-061>063-070>075-300100-
WESTERN AND SOUTH CENTRAL KENTUCKY

CITY           SKY/WX    TMP DP  RH WIND       PRES   REMARKS
PADUCAH        CLOUDY    42  30  62 NW12      30.27R
HENDERSON      CLOUDY    37  32  81 NW9       30.24R WCI  31
OWENSBORO      CLOUDY    40  33  76 NW20      30.23R WCI  30
HOPKINSVILLE   CLOUDY    41  32  69 NW8       30.24R
BOWLING GREEN  CLOUDY    41  30  65 NW9G20    30.20R
GLASGOW        NOT AVBL
$$

KYZ024-025-028>034-038-045-046-053-300100-
NORTH CENTRAL KENTUCKY

CITY           SKY/WX    TMP DP  RH WIND       PRES   REMARKS
LOUISVILLE/SDF CLOUDY    38  34  85 W17       30.16R FOG     WCI  28
LOUISVILLE/LOU LGT RAIN  37  33  85 NW10      30.16R FOG     WCI  30
FORT KNOX      DRIZZLE   37  33  86 W14G20    30.14R FOG     WCI  28
$$

KYZ035>037-039>044-047>052-055>060-089>105-300100-
NORTHEAST KENTUCKY

CITY           SKY/WX    TMP DP  RH WIND       PRES   REMARKS
LEXINGTON      CLOUDY    37  31  78 W16G22    30.12R WCI  28
COVINGTON      DRIZZLE   35  31  85 W14       30.08R FOG     WCI  26
FRANKFORT      CLOUDY    36  32  85 W8        30.12R WCI  30
$$

KYZ054-064>069-076>088-106>120-300100-
SOUTHEAST KENTUCKY

CITY           SKY/WX    TMP DP  RH WIND       PRES   REMARKS
JACKSON        CLOUDY    43  34  70 NW17G29   30.03R
LONDON         CLOUDY    45  34  65 NW12G24   30.08R
SOMERSET       NOT AVBL
MIDDLESBORO    NOT AVBL
MONTICELLO     CLOUDY    43  37  79 NW14G24   30.15R
$$




USA.gov is the U.S. government's official web portal to all federal, state and local government web resources and services.